This is the latest recevied weather packets stored in our database for station/object OH6GKW. If no packets are shown the sender has not sent any weather packets the latest 1 day(s).
| Time | Temp. | Humidity | Pressure | Rain* | Wind** | Luminosity | Snow |
|---|---|---|---|---|---|---|---|
| 1778102915 | 3.89° C | 71% | 1010.6 hPa | 0 mm | - | 0 W/m² | - |
| 1778099315 | 3.89° C | 73% | 1010.5 hPa | 0 mm | - | 0 W/m² | - |
| 1778098716 | 3.89° C | 74% | 1010.5 hPa | 0 mm | - | 0 W/m² | - |
| 1778098409 | 3.89° C | 74% | 1010.5 hPa | 0 mm | - | 0 W/m² | - |
| 1778096029 | 3.89° C | 75% | 1010.4 hPa | 0 mm | - | 0 W/m² | - |
| 1778094513 | 4.44° C | 71% | 1010.3 hPa | 0 mm | - | 0 W/m² | - |
| 1778093930 | 5° C | 71% | 1010.2 hPa | 0 mm | - | 0 W/m² | - |
| 1778092416 | 5.56° C | 68% | 1010 hPa | 0 mm | - | 18 W/m² | - |
| 1778092126 | 6.11° C | 67% | 1010 hPa | 0 mm | - | 26 W/m² | - |
| 1778091818 | 6.11° C | 67% | 1010 hPa | 0 mm | - | 33 W/m² | - |
| 1778090641 | 6.11° C | 67% | 1010 hPa | 0 mm | - | 53 W/m² | - |
| 1778090326 | 6.11° C | 66% | 1009.9 hPa | 0 mm | - | 21 W/m² | - |
| 1778090019 | 6.67° C | 65% | 1009.9 hPa | 0 mm | - | 21 W/m² | - |
| 1778089425 | 6.67° C | 65% | 1009.9 hPa | 0 mm | - | 91 W/m² | - |
| 1778088811 | 6.67° C | 64% | 1009.9 hPa | 0 mm | - | 84 W/m² | - |
| 1778088525 | 6.67° C | 64% | 1009.7 hPa | 0 mm | - | 118 W/m² | - |
| 1778088218 | 6.67° C | 64% | 1009.7 hPa | 0 mm | - | 125 W/m² | - |
| 1778087635 | 6.67° C | 63% | 1009.6 hPa | 0 mm | - | 141 W/m² | - |
| 1778087016 | 7.22° C | 62% | 1009.6 hPa | 0 mm | - | 158 W/m² | - |
| 1778086120 | 7.22° C | 59% | 1009.5 hPa | 0 mm | - | 187 W/m² | - |
| 1778085813 | 7.22° C | 58% | 1009.5 hPa | 0 mm | - | 195 W/m² | - |
| 1778085526 | 7.22° C | 58% | 1009.5 hPa | 0 mm | - | 206 W/m² | - |
| 1778085224 | 7.22° C | 57% | 1009.5 hPa | 0 mm | - | 215 W/m² | - |
| 1778084636 | 7.78° C | 57% | 1009.5 hPa | 0 mm | - | 234 W/m² | - |
| 1778082214 | 7.78° C | 58% | 1009.3 hPa | 0 mm | - | 310 W/m² | - |
* Rain since midnight (hover to see other rain measurements)
** Current wind speed in m/s (hover to see current wind gust speed)